www.pogodaiklimat.ru

Погода и климат >> Архив погоды >> Норвегия >> Маяк Sklinna


ПОГОДА на Маяке Sklinna

  • Прогноз погоды на Маяке Sklinna
  • Монитор погоды на Маяке Sklinna

АРХИВ ПОГОДЫ на Маяке Sklinna

Время (UTC), дата Ветер
(напр.,м/с)
 
Видим.   Явления Облачность Т
(С)
Тd
(С)
f
(%)
Тe
(С)
Тes
(С)
Комфортность P
(гПа)
Po
(гПа)
Тmin
(С)
Tmax
(С)
R
(мм)
R24
(мм)
S
(см)
13 15.07 С 8
{13}
н/о н/о +10.8 +6.2 73 +7 +7 1014.6 1012.7
14 15.07 СЗ 7
{9}
н/о н/о +10.3 +6.5 77 +7 +7 1014.5 1012.6
15 15.07 СЗ 7
{9}
н/о н/о +10.7 +6.7 76 +7 +7 1014.3 1012.4
16 15.07 С 7
{9}
н/о н/о +10.7 +7.4 80 +7 +7 1014.2 1012.3
17 15.07 С 8
{9}
н/о н/о +10.7 +7.4 80 +7 +7 1014.1 1012.2
18 15.07 СЗ 7
{13}
н/о н/о +10.5 +8.4 87 +7 +7 1014.2 1012.3
19 15.07 С 8
{10}
н/о н/о +10.8 +8.9 88 +7 +7 1014.1 1012.2
20 15.07 С 8
{11}
н/о н/о +10.9 +8.1 83 +7 +7 1014.3 1012.4
21 15.07 С 7
{9}
н/о н/о +10.8 +8.2 84 +7 +7 1014.8 1012.9
22 15.07
{9}
н/о н/о +11.0 +7.9 81 1015.3 1013.4
23 15.07 С 6
{9}
н/о н/о +11.1 +7.6 79 +8 +8 1015.5 1013.6
00 16.07 С 6
{11}
н/о н/о +11.1 +9.4 89 +8 +8 1015.7 1013.8
01 16.07 С 8
{10}
н/о н/о +10.6 +9.4 92 +7 +7 1015.9 1014.0
02 16.07 С 9
{11}
н/о н/о +10.4 +9.0 91 +6 +6 1015.9 1014.0
03 16.07 С 10
{12}
н/о н/о +10.3 +8.4 88 +6 +6 1015.9 1014.0
04 16.07 С 9
{12}
н/о н/о +10.5 +8.3 86 +6 +6 1016.2 1014.3
05 16.07 С 9
{11}
н/о н/о +10.7 +8.3 85 +7 +7 1016.5 1014.6
06 16.07
{12}
н/о н/о +10.7 +7.9 83 1016.6 1014.7 +10.0 +11.3
07 16.07 С 8
{11}
н/о н/о +10.6 +6.9 78 +7 +7 1016.9 1015.0
08 16.07 С 8
{10}
н/о н/о +11.0 +7.3 78 +7 +7 1017.0 1015.1
09 16.07
{8}
н/о н/о +11.0 +7.5 79 1017.1 1015.2
10 16.07
{9}
н/о н/о +11.4 +6.9 74 1017.1 1015.2
11 16.07
{8}
н/о н/о +11.6 +7.1 74 1017.4 1015.5
12 16.07 С 6
{11}
н/о н/о +11.7 +7.4 75 +9 +9 1017.4 1015.5
13 16.07 С 5 н/о н/о +12.0 +7.7 75 +10 +10 1017.5 1015.6
14 16.07 С 4 н/о н/о +11.7 +7.2 74 +10 +10 1017.5 1015.6
16 16.07 С 5
{7}
н/о н/о +10.9 +9 +9 1017.4 1015.5
17 16.07
{8}
н/о н/о +10.9 1017.2 1015.3
18 16.07 С 6 н/о н/о +10.9 +9 +9 1017.0 1015.1
19 16.07 С 8
{9}
н/о н/о +10.9 +8 +8 1016.6 1014.7
20 16.07 С 7
{11}
н/о н/о +10.6 +8 +8 1016.5 1014.6
21 16.07
{9}
н/о н/о +10.6 1016.6 1014.7
22 16.07 С 5
{9}
н/о н/о +10.4 +9 +9 1016.5 1014.6
23 16.07 С 5
{8}
н/о н/о +10.0 +8 +8 1016.4 1014.5
00 17.07 С 6
{11}
н/о н/о +10.3 +8 +8 1016.2 1014.3
01 17.07 С 6
{9}
н/о н/о +10.6 +8 +8 1015.8 1013.9
02 17.07 С 5
{8}
н/о н/о +10.5 +9 +9 1015.6 1013.7
03 17.07 С 5
{7}
н/о н/о +10.5 +9 +9 1015.2 1013.3
04 17.07 С 5
{7}
н/о н/о +10.5 +9 +9 1015.0 1013.1
05 17.07 С 5
{7}
н/о н/о +10.9 +9 +9 1014.8 1012.9
06 17.07 С 4
{9}
н/о н/о +11.0 +10 +10 1014.7 1012.8 +9.9 +11.0
07 17.07 С 5
{8}
н/о н/о +11.2 +9 +9 1014.6 1012.7
08 17.07 С 3
{6}
н/о н/о +11.5 +11 +11 1014.4 1012.5

 

Местоположение метеостанции Маяк Sklinna (Норвегия): широта 65.20 долгота 11.00 высота над уровнем моря 23 м.

В архиве по умолчанию представлена погода на Маяке Sklinna за последнюю неделю. Архивные данные за месяц целиком и за предыдущие месяцы, начиная с января 2011 года, Вы можете получить, выбрав интересующий диапазон дат из раскрывающегося списка и нажав кнопку "Ввод!".


*Определитесь, кто Вы:
робот инопланетянин человек

Внимание! Время в таблицах - всемирное. Для получения местного времени необходимо прибавить поправку, которая равна 1 ч.

Смотрите также архив погоды в соседних городах и на ближайших метеорологических станциях:

Погода в Рорвик аэропорту (Норвегия) (42 км)
Погода на Сомна-Квалёйа (Норвегия) (46 км)
Погода на Маяке Nordoyan (Норвегия) (49 км)
Погода в Брённёйсунн аэропорту (Норвегия) (64 км)
Погода в Вега-Валсё (Норвегия) (68 км)
Погода в Намсос аэропорту (Норвегия) (86 км)
Погода на Маяке Buholmrasa (Норвегия) (93 км)
Погода в Хьётте (Норвегия) (96 км)
Погода в Гартлэнде (Норвегия) (99 км)
Погода в Намсскугане (Норвегия) (101 км)

Пояснения к столбцам:

Ветер - указаны скорость ветра в м/с - средняя за 10 мин, порывы в срок и между сроками (в фигурных скобках) и направление, откуда дует ветер: С - северный, СВ - северо-восточный, В - восточный, ЮВ - юго-восточный, Ю - южный, ЮЗ - юго-западный, З - западный, СЗ - северо-западный.
Видимость - горизонтальная дальность видимости в метрах или километрах. При видимости от 1 до 10 км при отсутствии осадков обычно наблюдается дымка, при ухудшении видимости до 1 км и менее - туман. В сухую погоду видимость может ухудшаться дымом, пылью или мглою.
Явления - указаны атмосферные явления, наблюдавшиеся в срок или в последний час перед сроком; фигурными скобками обозначены явления, наблюдавшиеся между сроками (за 1-3 часа до срока); квадратными скобками обозначены град или гололедные отложения с указанием их диаметра в мм.
Облачность - указаны через наклонную черту общая и нижняя облачность в баллах и высота нижней границы облаков в метрах; квадратными скобками обозначены формы облаков: Ci - перистые, Cs - перисто-слоистые, Cc - перисто-кучевые, Ac - высококучевые, As - высокослоистые, Sc - слоисто-кучевые, Ns - слоисто-дождевые, Cu - кучевые, Cb - кучево-дождевые. Подробнее классификацию облаков см. в Атласе облаков (PDF).
T - Температура воздуха - температура, измеренная на высоте 2 м над землей.
Td - Температура точки росы - температура, при понижении до которой содержащийся в воздухе водяной пар достигнет насыщения.
f - Относительная влажность воздуха - влажноcть воздуха, измеренная на высоте 2 м над землей.
Te - Эффективная температура - температура, которую ощущает одетый по сезону человек в тени. Характеристика душности погоды. При расчете учитывается влияние влажности воздуха и скорости ветра на теплоощущения человека.
Tes - Эффективная температура на солнце - температура, которую ощущает человек, с поправкой на солнечный нагрев. Характеристика знойности погоды. Зависит от высоты солнца над горизонтом, облачности и скорости ветра. Ночью, в пасмурную погоду, а также при ветре 12 м/с и более поправка равна нулю.
P - Атмосферное давление - приведенное к уровню моря атмосферное давление.
Po - Атмосферное давление - измеренное на уровне метеостанции атмосферное давление.
Tmin - Минимальная температура - минимум температуры воздуха на высоте 2 м над землей.
Tmax - Максимальная температура - максимум температуры воздуха на высоте 2 м над землей.
R - Количество осадков - Количество выпавших осадков за период времени, мм. При наведении курсора мыши на число - период времени, за который выпало указанное количество осадков.
R24 - Количество осадков - Количество выпавших осадков за 24 часа, мм.
S - Снежный покров - Высота снежного покрова, см. При наведении курсора мыши на число - состояние снежного покрова и степень покрытия местности в баллах.